This is the latest recevied weather packets stored in our database for station/object KQ4JKJ. If no packets are shown the sender has not sent any weather packets the latest 10 day(s).
| Time | Temp. | Humidity | Pressure | Rain* | Wind** | Luminosity | Snow |
|---|---|---|---|---|---|---|---|
| 1777848714 | 22.22° C | 78% | 1010.2 hPa | 0 mm | - | 10 W/m² | - |
| 1777848411 | 22.22° C | 78% | 1010.1 hPa | 0 mm | - | 10 W/m² | - |
| 1777847351 | 22.78° C | 78% | 1010.2 hPa | 0 mm | - | 19 W/m² | - |
| 1777847050 | 22.78° C | 78% | 1010.2 hPa | 0 mm | - | 19 W/m² | - |
| 1777846748 | 22.78° C | 78% | 1010.3 hPa | 0 mm | - | 24 W/m² | - |
| 1777846446 | 22.78° C | 78% | 1010.1 hPa | 0 mm | - | 26 W/m² | - |
| 1777846142 | 22.78° C | 78% | 1010.2 hPa | 0 mm | - | 34 W/m² | - |
| 1777845839 | 22.78° C | 78% | 1010.1 hPa | 0 mm | - | 26 W/m² | - |
| 1777845536 | 22.78° C | 78% | 1010.2 hPa | 0 mm | - | 23 W/m² | - |
| 1777845233 | 22.78° C | 77% | 1010.2 hPa | 0 mm | - | 20 W/m² | - |
| 1777844930 | 22.78° C | 77% | 1010 hPa | 0 mm | - | 41 W/m² | - |
| 1777844627 | 22.78° C | 76% | 1009.9 hPa | 0 mm | - | 47 W/m² | - |
| 1777844325 | 23.33° C | 76% | 1010 hPa | 0 mm | - | 57 W/m² | - |
| 1777844022 | 22.78° C | 76% | 1010 hPa | 0 mm | - | 64 W/m² | - |
| 1777843719 | 22.78° C | 75% | 1010.1 hPa | 0 mm | - | 74 W/m² | - |
| 1777843417 | 22.78° C | 76% | 1010.2 hPa | 0 mm | - | 66 W/m² | - |
| 1777843114 | 22.78° C | 76% | 1010 hPa | 0 mm | - | 55 W/m² | - |
| 1777842811 | 22.78° C | 76% | 1010.4 hPa | 0 mm | - | 47 W/m² | - |
| 1777842506 | 22.78° C | 76% | 1010.2 hPa | 0 mm | - | 32 W/m² | - |
| 1777842203 | 23.33° C | 75% | 1010.3 hPa | 0 mm | - | 38 W/m² | - |
| 1777841898 | 23.33° C | 76% | 1010.3 hPa | 0 mm | - | 63 W/m² | - |
| 1777841595 | 23.33° C | 75% | 1010.2 hPa | 0 mm | - | 102 W/m² | - |
| 1777841291 | 23.33° C | 75% | 1010.1 hPa | 0 mm | - | 85 W/m² | - |
| 1777840989 | 23.33° C | 74% | 1010.2 hPa | 0 mm | - | 79 W/m² | - |
| 1777840686 | 23.89° C | 73% | 1010.1 hPa | 0 mm | - | 109 W/m² | - |
* Rain latest hour (hover to see other rain measurements)
** Current wind speed in m/s (hover to see current wind gust speed)